Location: G�migny
(47.9646°N, 1.6950°E)
Time: 18:28:09
(UTC+00:00)

STARLINK-61 - Pass Details

Date: 23 October 2019
Orbit: 530 x 533 km, 53.0° (Epoch: 12 November)

Event Time Altitude Azimuth Distance (km) Brightness Sun altitude
Rises 19:18:08 0° 296° (WNW) 2,680 8.4 -25.3°
Reaches altitude 10° 19:20:21 10° 297° (WNW) 1,787 7.2 -25.6°
Enters shadow 19:23:22 49° 299° (WNW) 697 4.4 -26.1°
